Location: Wiesbaden
(50.0830°N, 8.2500°E)
Time: 05:19:17
(UTC+02:00)

ISS - Pass Details

Date: 30 March 2020
Orbit: 417 x 423 km, 51.6° (Epoch: 29 March)

Event Time Altitude Azimuth Distance (km) Brightness Sun altitude
Rises 22:31:41 0° 287° (WNW) 2,363 1.2 -23.4°
Reaches altitude 10° 22:33:53 10° 278° (W) 1,497 -0.2 -23.7°
Enters shadow 22:35:41 24° 254° (WSW) 903 -1.8 -23.9°
